Regional Weather Roundup
Issued by NWS Little Rock, AR

Home | Current Version | Previous Version | Text Only | Print | Product List | Glossary On
Versions: 1 2 3 4 5 6 7 8 9 10 11 12 13 14 15 16 17 18 19 20 21 22 23 24 25 26 27 28 29 30 31 32
000
ASUS44 KLZK 250805
RWRLZK

WEATHER ROUNDUP FOR ARKANSAS
NATIONAL WEATHER SERVICE LITTLE ROCK AR
300 AM CDT THU MAY 25 2017

NOTE: "FAIR" INDICATES FEW OR NO CLOUDS BELOW 12,000 FEET WITH NO
SIGNIFICANT WEATHER AND/OR OBSTRUCTIONS TO VISIBILITY.

ARZ001-003-010-029-250900-
NORTHWEST ARKANSAS

CITY           SKY/WX    TMP DP  RH WIND       PRES   REMARKS
FAYETTEVILLE   CLEAR     45  45 100 S3        29.74F
FORT SMITH     CLEAR     51  47  86 CALM      29.74S
HARRISON       CLEAR     49  47  93 W6        29.74R
BENTONVILLE    CLEAR     48  45  87 CALM      29.74F
ROGERS         CLEAR     50  47  89 CALM      29.75S
SILOAM SPGS    CLEAR     48  43  81 CALM      29.73F
HIGHFILL       CLEAR     48  45  89 CALM      29.74F
$$

ARZ004-005-016-250900-
NORTH CENTRAL ARKANSAS

CITY           SKY/WX    TMP DP  RH WIND       PRES   REMARKS
BATESVILLE     CLEAR     52  48  87 NW5       29.71F
FLIPPIN        CLEAR     48  45  87 CALM      29.69S
MTN HOME       CLEAR     48  47  96 CALM      29.71S FOG
$$

ARZ040-041-250900-
WEST CENTRAL ARKANSAS

CITY           SKY/WX    TMP DP  RH WIND       PRES   REMARKS
MENA           CLEAR     46  45  93 CALM      29.77S
MOUNT IDA      CLEAR     48  46  93 W3        29.73S
$$

ARZ009-017-025-026-028-250900-
NORTHEAST ARKANSAS

CITY           SKY/WX    TMP DP  RH WIND       PRES   REMARKS
JONESBORO      CLEAR     54  51  90 W6        29.68S
WALNUT RIDGE   CLEAR     52  46  82 W7        29.69S
BLYTHEVILLE    PTCLDY    55  52  89 W6        29.67R
$$

ARZ022-023-033-042-044-250900-
CENTRAL ARKANSAS

CITY           SKY/WX    TMP DP  RH WIND       PRES   REMARKS
LITTLE ROCK    CLEAR     52  52 100 W6        29.75R
N LITTLE ROCK    N/A     54  51  90 CALM      29.75R
JACKSONVILLE   CLEAR     52  52  99 W6        29.73R
CONWAY           N/A     54  54 100 CALM      29.73R
SEARCY         CLEAR     50  50 100 W3        29.74R
HOT SPRINGS    CLEAR     52  50  93 NW3       29.76S
RUSSELLVILLE   CLEAR     49  48  97 CALM      29.74S
CLINTON        FAIR      48  46  93 CALM      29.74R
$$

ARZ036-250900-
EAST ARKANSAS

CITY           SKY/WX    TMP DP  RH WIND       PRES   REMARKS
WEST MEMPHIS   CLEAR     53  53 100 VRB3      29.69R
$$

ARZ050-053-066-070-073-250900-
SOUTHWEST ARKANSAS

CITY           SKY/WX    TMP DP  RH WIND       PRES   REMARKS
ARKADELPHIA    FAIR      51  50  96 CALM      29.76F
CAMDEN         CLEAR     50  46  87 CALM      29.76S FOG
TEXARKANA      CLEAR     51  51 100 CALM      29.76S
EL DORADO      CLEAR     50  49  96 CALM      29.77S
DE QUEEN       PTCLDY    48  48 100 CALM      29.74S FOG
$$

ARZ056-057-069-250900-
SOUTHEAST ARKANSAS

CITY           SKY/WX    TMP DP  RH WIND       PRES   REMARKS
PINE BLUFF     CLEAR     53  50  89 W5        29.75R
STUTTGART      CLEAR     55  43  62 W5        29.74R
MONTICELLO     CLEAR     53  50  89 W3        29.75S

$$






USA.gov is the U.S. government's official web portal to all federal, state and local government web resources and services.